Location: ???????
(55.4362°N, 38.1183°E)
Time: 01:51:25
(UTC+00:00)

Cosmos 1932 - Pass Details

Date: 25 October 2021
Orbit: 943 x 987 km, 65.0° (Epoch: 01 December)

Event Time Altitude Azimuth Distance (km) Brightness Sun altitude
Rises 16:14:28 0° 313° (NW) 3,619 8.3 -19.0°
Reaches altitude 10° 16:17:05 10° 308° (NW) 2,673 7.6 -19.4°
Maximum altitude 16:23:02 49° 236° (SW) 1,209 5.3 -20.2°
Drops below altitude 10° 16:29:00 10° 163° (SSE) 2,679 6.6 -21.1°
Enters shadow 16:29:25 - 162° (SSE) 2,824 6.7 -21.1°
